Location: Makakahi
(40.6833°S, 175.6000°E)
Time: 07:00:33
(UTC+00:00)

DMSP F15 (USA 147) - Pass Details

Date: 10 December 2024
Orbit: 827 x 842 km, 99.1° (Epoch: 18 January)

Event Time Altitude Azimuth Distance (km) Brightness Sun altitude
Rises 08:22:07 0° 174° (S) 3,435 8.9 -7.2°
Reaches altitude 10° 08:24:38 10° 181° (S) 2,494 8.3 -7.5°
Maximum altitude 08:29:43 39° 248° (WSW) 1,259 6.8 -8.3°
Drops below altitude 10° 08:34:46 10° 315° (NW) 2,467 7.7 -9.0°
Sets 08:37:14 0° 322° (NW) 3,394 8.3 -9.4°
